Lexington Weather

Lexington, Massachusetts, USA

70°F
7/18/2019 1:31pm 
  • Lexington Conditions: Overcast
  • Temperature: 70.0°F / 21.1°CWarmer 1.1°F than last hour.
  • Dew Point: 62.4°FDecreased 0.4°Fsince last hour.
  • Relative Humidity: 77%Decreased 4.0% since last hour.
  • Wind: Wind from WSW WSW 2 mph, 10-min avg: 1 mph, gust: 2 mph
  • Barometer: 29.95 in Steady
  • Visibility: 10 miles
  • Rain Today: 0.01 in
  •   
 Southeast Middlesex County - Excessive Heat Watch Excessive Heat Watch
 Middlesex County - Excessive Heat Watch Excessive Heat Watch
 - SEE ALL ALERTS -

Regional Weather Roundup
for Boston, MA

        
000
ASUS41 KBOX 181710
RWRBOX

REGIONAL WEATHER ROUNDUP
NATIONAL WEATHER SERVICE BOSTON/NORTON MA
100 PM EDT THU JUL 18 2019

NOTE:  "FAIR" INDICATES FEW OR NO CLOUDS BELOW 12,000 FEET WITH NO 
SIGNIFICANT WEATHER AND/OR OBSTRUCTIONS TO VISIBILITY.

MAZALL-181800-
EASTERN MASSACHUSETTS
  
CITY           SKY/WX    TMP DP  RH WIND       PRES   REMARKS
BOSTON         CLOUDY    70  58  65 NE14      30.01R                  
BEVERLY        CLOUDY    68  57  68 NE8       30.01R                  
LAWRENCE       CLOUDY    71  56  58 E8G17     30.03S                  
BEDFORD        CLOUDY    73  58  59 E9        30.00R                  
BLUE HILL        N/A     64  59  83 NE12G20   30.00S                  
NORWOOD        CLOUDY    71  59  65 NE12G17   30.00F                  
MARSHFIELD     CLOUDY    70  64  83 NE8G15    30.00R                  
PLYMOUTH       CLOUDY    69  66  90 NE10G18   29.98S FOG              
TAUNTON        CLOUDY    70  63  78 VRB7      29.98S                  
NEW BEDFORD    CLOUDY    70  65  84 N10       29.96R                  
$$

MAZALL-181800-
CAPE COD AND THE ISLANDS
  
CITY           SKY/WX    TMP DP  RH WIND       PRES   REMARKS
FALMOUTH       CLOUDY    70  70 100 NE10      29.96R                  
HYANNIS        CLOUDY    79  72  78 N10       29.94R                  
CHATHAM        CLOUDY    70  68  93 NE9       29.97R                  
PROVINCETOWN   CLOUDY    69  63  81 E14       29.98S                  
NANTUCKET      HVY RAIN  72  71  97 SW3       29.95S FOG              
MARTHAS VNYRD  CLOUDY    74  72  93 SW5       29.95R                  
$$
 
MAZALL-181800-
CENTRAL AND WESTERN MASSACHUSETTS
  
CITY           SKY/WX    TMP DP  RH WIND       PRES   REMARKS
WORCESTER      CLOUDY    67  60  78 E13G18    30.01F                  
FITCHBURG      CLOUDY    71  57  61 E9        30.02S                  
ORANGE         CLOUDY    74  60  61 E8        30.01F                  
SPRINGFIELD    CLOUDY    74  63  66 E12       29.96F                  
WESTFIELD      CLOUDY    73  63  70 VRB7      29.97F                  
NORTH ADAMS    CLOUDY    73  66  78 E10       29.98F                  
PITTSFIELD     CLOUDY    70  65  84 NE9       29.98F                  
$$
 
RIZALL-181800-
RHODE ISLAND
  
CITY           SKY/WX    TMP DP  RH WIND       PRES   REMARKS
PROVIDENCE     CLOUDY    69  64  84 NE13      29.99R                  
NEWPORT        CLOUDY    70  67  90 N15       29.97R                  
BLOCK ISLAND   LGT RAIN  69  68  96 NE10G17   29.96R FOG              
SMITHFIELD     CLOUDY    67  61  81 NE13      30.00F                  
WESTERLY       LGT RAIN  72  71  97 NE7       29.96R FOG              
$$
 
CTZALL-181800-
CONNECTICUT
  
CITY           SKY/WX    TMP DP  RH WIND       PRES   REMARKS
BRADLEY INTL   CLOUDY    74  64  71 NE10      29.95F                  
HARTFORD       CLOUDY    75  67  76 NE7       29.94S                  
BRIDGEPORT     HVY RAIN  74  73  97 E7        29.91F FOG              
DANBURY        CLOUDY    76  72  87 E6        29.94S                  
GROTON         RAIN      73  69  87 NE13      29.93S FOG              
NEW HAVEN      LGT RAIN  77  74  90 E7        29.92F FOG              
CHESTER        LGT RAIN  73  72  94 NE9       29.94F VSB 1/2          
MERIDEN        RAIN      75  70  84 N8        29.93R                  
WILLIMANTIC    CLOUDY    70  64  81 NE13      29.97S                  
OXFORD         LGT RAIN  73  72  96 E10       29.96S FOG              
$$

MEZ002-015-021-024-NHZ003-005-008-011-012-014-VTZ005-008-181800-
NORTHERN NEW ENGLAND
  
CITY           SKY/WX    TMP DP  RH WIND       PRES   REMARKS
PORTLAND ME    FAIR      74  56  53 E10       30.01F                  
BANGOR ME      FAIR      73  53  49 CALM      30.01F                  
CONCORD NH       N/A    N/A N/A N/A MISG      30.01F                  
MANCHESTER NH  PTSUNNY   77  55  46 E9        29.99F                  
NASHUA NH      CLOUDY    75  56  51 E10       30.02S                  
PORTSMOUTH NH  MOSUNNY   74  51  44 E8        30.00F                  
JAFFREY NH     CLOUDY    72  58  61 E6        30.02F                  
KEENE NH       CLOUDY    75  62  64 NE5       30.00S                  
BURLINGTON VT  PTSUNNY   80  61  52 W5        29.95F                  
MT. WASHINGTON FOG       57  57 100 W13         N/A  VSB 1/8          
$$

NYZ052-076-181800-
EASTERN NEW YORK
  
CITY           SKY/WX    TMP DP  RH WIND       PRES   REMARKS
ALBANY         LGT RAIN  76  68  76 NW5       29.96S                  
NEW YORK CITY  CLOUDY    77  72  84 NE10      29.89F                  
$$
 
ANZALL-181800-
MARINE OBSERVATIONS
  
STATION/POSITION TIME  TEMP    WIND        PRES    VSBY  WAVE
                       AIR SEA DIR/SP/G                  HT/PER
                 (UTC) (F)     (DEG/KT/KT) (MB)    (MI)  (FT/S)
BOSTON BUOY      1650   66 69   40/ 17/ 19 1014.4R         4/ 6
BUZZARDS BAY     NOT AVBL
NANTUCKET SOUND  1640      75                N/A           1
MASS BAY-STELLWA 1604   65 64   50/ 16/ 17 1015.2R  1 7/8  5/ 5
ISLE OF SHOALS   1700   65      50/ 15/ 17 1015.5F
S OF BLOCK IS    1700      71                N/A           3/ 6
$$

......................KEY.........................
  SKY/WX - SKY CONDITION/PRESENT WEATHER
  TMP    - TEMPERATURE IN FAHRENHEIT
  DWPT   - DEWPOINT IN FAHRENHEIT
  RH     - RELATIVE HUMIDITY IN PERCENT
  WIND   - DIRECTION AND SPEED IN MPH
  PRES   - MEAN SEA LEVEL PRESSURE IN INCHES OF HG
  WCI    - WIND CHILL INDEX
  VSB    - VISIBILITY IN MILES
  HX     - HEAT INDEX
  TC     - TEMPERATURE IN CELSIUS
  VRB    - VARIABLE WIND DIRECTION
  N/A    - NOT AVAILABLE